Location: Unspecified
(0.0000°N, 0.0000°E)
Time: 04:44:04
(UTC+00:00)

CZ-4C DEB - Pass Details

Date: 13 March 2026
Orbit: 805 x 1381 km, 63.4° (Epoch: 15 April)

Event Time Altitude Azimuth Distance (km) Brightness Sun altitude
Rises 19:41:49 0° 341° (NNW) 4,215 ? -23.1°
Reaches altitude 10° 19:44:33 10° 343° (NNW) 3,306 ? -23.8°
Maximum altitude 19:52:46 76° 68° (ENE) 1,406 ? -25.8°
Enters shadow 19:59:28 18° 151° (SSE) 2,843 ? -27.5°
